Tiempo cada hora Dabrowa

Hoy, 4 Agosto, Miércoles

Tiempo Temperatura Precipitaciones Viento Presión Humedad
00:00 +16°C° 0 mm 1 mps 752 mmHg 77%
01:00 +16°C° 0 mm 1 mps 752 mmHg 78%
02:00 +16°C° 0.2 mm 1 mps 752 mmHg 80%
03:00 +16°C° 0.2 mm 1 mps 752 mmHg 82%
04:00 +16°C° 0.2 mm 1 mps 752 mmHg 84%
05:00 +16°C° 0.3 mm 1 mps 752 mmHg 84%
06:00 +16°C° 0.3 mm 1 mps 752 mmHg 83%
07:00 +16°C° 0.3 mm 2 mps 752 mmHg 83%
08:00 +18°C° 0.1 mm 2 mps 752 mmHg 76%
09:00 +19°C° 0.1 mm 2 mps 752 mmHg 69%
10:00 +21°C° 0.1 mm 2 mps 752 mmHg 62%
11:00 +21°C° 0.8 mm 2 mps 752 mmHg 61%
12:00 +23°C° 0.8 mm 2 mps 752 mmHg 60%
13:00 +23°C° 0.8 mm 2 mps 752 mmHg 59%
14:00 +23°C° 0.6 mm 2 mps 752 mmHg 58%
15:00 +23°C° 0.6 mm 2 mps 752 mmHg 58%
16:00 +23°C° 0.6 mm 2 mps 752 mmHg 57%
17:00 +21°C° 0.3 mm 2 mps 751 mmHg 62%
18:00 +21°C° 0.3 mm 2 mps 751 mmHg 67%
19:00 +20°C° 0.3 mm 2 mps 751 mmHg 71%
20:00 +18°C° 0 mm 2 mps 752 mmHg 76%
21:00 +17°C° 0 mm 2 mps 752 mmHg 80%
22:00 +16°C° 0 mm 2 mps 752 mmHg 85%
23:00 +16°C° 0 mm 2 mps 752 mmHg 87%

Mañana, 5 Agosto, Jueves

Tiempo Temperatura Precipitaciones Viento Presión Humedad
00:00 +15°C° 0 mm 2 mps 752 mmHg 90%
01:00 +14°C° 0 mm 3 mps 752 mmHg 92%
02:00 +14°C° 0 mm 3 mps 751 mmHg 93%
03:00 +13°C° 0 mm 3 mps 751 mmHg 94%
04:00 +13°C° 0 mm 3 mps 751 mmHg 95%
05:00 +14°C° 0 mm 3 mps 751 mmHg 90%
06:00 +16°C° 0 mm 3 mps 751 mmHg 86%
07:00 +18°C° 0 mm 3 mps 751 mmHg 81%
08:00 +19°C° 0.1 mm 4 mps 751 mmHg 75%
09:00 +21°C° 0.1 mm 4 mps 751 mmHg 68%
10:00 +22°C° 0.1 mm 4 mps 751 mmHg 62%
11:00 +22°C° 0.5 mm 4 mps 750 mmHg 60%
12:00 +22°C° 0.5 mm 4 mps 750 mmHg 59%
13:00 +23°C° 0.5 mm 4 mps 750 mmHg 57%
14:00 +23°C° 0.2 mm 4 mps 750 mmHg 57%
15:00 +23°C° 0.2 mm 4 mps 749 mmHg 57%
16:00 +23°C° 0.2 mm 4 mps 749 mmHg 56%
17:00 +22°C° 0 mm 3 mps 749 mmHg 59%
18:00 +21°C° 0 mm 3 mps 749 mmHg 62%
19:00 +20°C° 0 mm 2 mps 748 mmHg 66%
20:00 +19°C° 0 mm 2 mps 748 mmHg 70%
21:00 +19°C° 0 mm 2 mps 748 mmHg 74%
22:00 +19°C° 0 mm 1 mps 748 mmHg 78%
23:00 +19°C° 0.1 mm 1 mps 748 mmHg 80%

Pasado mañana, 6 Agosto, Viernes

Tiempo Temperatura Precipitaciones Viento Presión Humedad
00:00 +18°C° 0.1 mm 1 mps 748 mmHg 82%
01:00 +18°C° 0.1 mm 1 mps 748 mmHg 83%
02:00 +18°C° 0.8 mm 1 mps 748 mmHg 86%
03:00 +16°C° 0.8 mm 1 mps 748 mmHg 89%
04:00 +16°C° 0.8 mm 1 mps 748 mmHg 92%
05:00 +16°C° 0.3 mm 1 mps 748 mmHg 91%
06:00 +16°C° 0.3 mm 1 mps 748 mmHg 90%
07:00 +18°C° 0.3 mm 1 mps 748 mmHg 88%
08:00 +18°C° 0.7 mm 1 mps 748 mmHg 84%
09:00 +18°C° 0.7 mm 2 mps 748 mmHg 79%
10:00 +19°C° 0.7 mm 2 mps 748 mmHg 74%
11:00 +19°C° 0.2 mm 2 mps 748 mmHg 69%
12:00 +20°C° 0.2 mm 3 mps 748 mmHg 64%
13:00 +21°C° 0.2 mm 3 mps 748 mmHg 59%
14:00 +21°C° 0 mm 3 mps 748 mmHg 56%
15:00 +21°C° 0 mm 3 mps 748 mmHg 52%
16:00 +23°C° 0 mm 2 mps 748 mmHg 49%
17:00 +20°C° 0 mm 2 mps 748 mmHg 53%
18:00 +19°C° 0 mm 2 mps 748 mmHg 58%
19:00 +18°C° 0 mm 2 mps 748 mmHg 62%
20:00 +17°C° 0 mm 2 mps 748 mmHg 65%
21:00 +16°C° 0 mm 2 mps 749 mmHg 68%
22:00 +15°C° 0 mm 2 mps 749 mmHg 71%
23:00 +15°C° 0 mm 2 mps 749 mmHg 72%

7 Agosto, Sábado

Tiempo Temperatura Precipitaciones Viento Presión Humedad
00:00 +15°C° 0 mm 2 mps 749 mmHg 72%
01:00 +15°C° 0 mm 2 mps 749 mmHg 73%
02:00 +15°C° 0 mm 2 mps 749 mmHg 74%
03:00 +15°C° 0 mm 2 mps 749 mmHg 74%
04:00 +15°C° 0 mm 2 mps 749 mmHg 74%
05:00 +16°C° 0 mm 2 mps 749 mmHg 73%
06:00 +17°C° 0 mm 3 mps 749 mmHg 72%
07:00 +18°C° 0 mm 3 mps 749 mmHg 71%
08:00 +20°C° 0 mm 3 mps 749 mmHg 67%
09:00 +22°C° 0 mm 3 mps 749 mmHg 62%
10:00 +24°C° 0 mm 3 mps 749 mmHg 58%
11:00 +25°C° 0 mm 4 mps 749 mmHg 53%
12:00 +26°C° 0 mm 4 mps 748 mmHg 48%
13:00 +27°C° 0 mm 5 mps 748 mmHg 43%
14:00 +28°C° 0 mm 5 mps 748 mmHg 42%
15:00 +28°C° 0 mm 4 mps 748 mmHg 41%
16:00 +28°C° 0 mm 4 mps 748 mmHg 40%
17:00 +27°C° 0 mm 3 mps 748 mmHg 45%
18:00 +25°C° 0 mm 2 mps 748 mmHg 51%
19:00 +24°C° 0 mm 1 mps 748 mmHg 56%
20:00 +24°C° 0 mm 1 mps 748 mmHg 57%
21:00 +23°C° 0 mm 1 mps 748 mmHg 57%
22:00 +23°C° 0 mm 1 mps 748 mmHg 58%
23:00 +22°C° 0.3 mm 1 mps 748 mmHg 67%

8 Agosto, Domingo

Tiempo Temperatura Precipitaciones Viento Presión Humedad
00:00 +20°C° 0.3 mm 2 mps 749 mmHg 77%
01:00 +19°C° 0.3 mm 3 mps 749 mmHg 86%
02:00 +18°C° 2.2 mm 2 mps 749 mmHg 90%
03:00 +18°C° 2.2 mm 2 mps 749 mmHg 93%
04:00 +18°C° 2.2 mm 2 mps 749 mmHg 97%
05:00 +18°C° 0.2 mm 3 mps 749 mmHg 94%
06:00 +18°C° 0.2 mm 4 mps 750 mmHg 92%
07:00 +17°C° 0.2 mm 5 mps 750 mmHg 89%
08:00 +20°C° 0 mm 5 mps 750 mmHg 80%
09:00 +21°C° 0 mm 5 mps 751 mmHg 70%
10:00 +23°C° 0 mm 5 mps 751 mmHg 61%
11:00 +25°C° 0 mm 5 mps 752 mmHg 55%
12:00 +26°C° 0 mm 5 mps 752 mmHg 49%
13:00 +27°C° 0 mm 5 mps 752 mmHg 43%
14:00 +27°C° 0 mm 5 mps 752 mmHg 42%
15:00 +27°C° 0 mm 5 mps 753 mmHg 41%
16:00 +27°C° 0 mm 5 mps 753 mmHg 40%
17:00 +25°C° 0 mm 4 mps 753 mmHg 45%
18:00 +23°C° 0 mm 4 mps 753 mmHg 50%
19:00 +22°C° 0 mm 3 mps 754 mmHg 55%
20:00 +21°C° 0 mm 3 mps 754 mmHg 57%
21:00 +20°C° 0 mm 3 mps 754 mmHg 59%
22:00 +20°C° 0 mm 3 mps 755 mmHg 61%
23:00 +19°C° 0 mm 3 mps 755 mmHg 67%

9 Agosto, Lunes

Tiempo Temperatura Precipitaciones Viento Presión Humedad
00:00 +18°C° 0 mm 3 mps 755 mmHg 72%
01:00 +17°C° 0 mm 3 mps 755 mmHg 78%
02:00 +17°C° 0 mm 2 mps 755 mmHg 80%
03:00 +16°C° 0 mm 2 mps 756 mmHg 82%
04:00 +16°C° 0 mm 2 mps 756 mmHg 84%
05:00 +17°C° 0 mm 2 mps 756 mmHg 80%
06:00 +18°C° 0 mm 2 mps 756 mmHg 76%
07:00 +19°C° 0 mm 2 mps 757 mmHg 71%
08:00 +20°C° 0 mm 2 mps 757 mmHg 64%
09:00 +22°C° 0 mm 3 mps 757 mmHg 58%
10:00 +24°C° 0 mm 3 mps 757 mmHg 51%
11:00 +25°C° 0 mm 4 mps 757 mmHg 47%
12:00 +26°C° 0 mm 4 mps 756 mmHg 43%
13:00 +27°C° 0 mm 4 mps 756 mmHg 39%
14:00 +27°C° 0 mm 4 mps 756 mmHg 40%
15:00 +26°C° 0 mm 4 mps 756 mmHg 41%
16:00 +26°C° 0 mm 3 mps 756 mmHg 42%
17:00 +25°C° 0 mm 3 mps 756 mmHg 46%
18:00 +24°C° 0 mm 2 mps 755 mmHg 50%
19:00 +23°C° 0 mm 2 mps 755 mmHg 55%
20:00 +21°C° 0 mm 2 mps 755 mmHg 56%
21:00 +20°C° 0 mm 2 mps 756 mmHg 57%
22:00 +20°C° 0 mm 2 mps 756 mmHg 58%
23:00 +19°C° 0 mm 2 mps 756 mmHg 62%
Mostrar más

Necesitamos Su Consentimiento

Meteoprog y nuestros Proveedores de Servicios pueden almacenar y acceder a sus datos personales como cookies, identificadores de dispositivo u otras tecnologías similares de su dispositivo y procesar dichos datos para personalizar contenido y anuncios, además de ofrecer funciones de redes sociales y analizar el tráfico.

  • Almacenar y/o acceder a información en su dispositivo

    Se puede almacenar o acceder a cookies, identificadores de dispositivo u otra información de su dispositivo para los fines anteriormente indicados.

  • Anuncios y contenido personalizados, medición de anuncios y contenido, percepciones del público, y desarrollo de productos

    Los anuncios y el contenido pueden personalizarse en base a su perfil. Se pueden añadir más datos para personalizar mejor los anuncios y contenidos. Se puede medir el rendimiento de los anuncios y contenidos. Se puede obtener la percepción sobre el público que ha visto los anuncios y contenidos. Dichos datos pueden usarse para desarrollar o mejorar la experiencia del usuario, sistemas y software.

Al hacer clic en ‘Estoy De Acuerdo’ usted permitirá el uso de las cookies, identificadores de dispositivo, balizas web u otras tecnologías similares indicadas. Su configuración puede cambiarse desde el navegador de su dispositivo.

Para ciertos fines, los intereses legítimos pueden ser considerados por encima del consentimiento. Puede leer más sobre ello en nuestra Política de Privacidad y Cookies.